Regional Weather Roundup
Issued by NWS

Home | Current Version | Previous Version | Graphics & Text | Print | Product List | Glossary On
Versions: 1 2 3 4 5 6 7 8 9 10 11 12 13 14 15 16 17 18 19 20 21 22 23 24 25 26 27 28 29 30 31 32 33 34 35 36 37 38 39 40 41 42 43 44 45 46 47 48 49 50
406
ASUS43 KFSD 231802
RWRSD

WEATHER ROUNDUP FOR SOUTH DAKOTA
NATIONAL WEATHER SERVICE SIOUX FALLS SD
100 PM CDT SUN JUL 23 2017

NOTE: "FAIR" INDICATES FEW OR NO CLOUDS BELOW 12,000 FEET WITH NO
SIGNIFICANT WEATHER AND/OR OBSTRUCTIONS TO VISIBILITY.


SDZ001>005-009-010-012>017-231900-
NORTHWEST AND NORTH CENTRAL SOUTH DAKOTA

CITY           SKY/WX    TMP DP  RH WIND       PRES   REMARKS
BUFFALO          N/A     86  46  24 SE8       30.01F
FAITH            N/A     84  50  30 VRB5      30.07F
MOBRIDGE       SUNNY     78  59  51 VRB3      30.05S
$$

SDZ012>016-024>037-041>051-057-063-072>074-231900-
SOUTHWEST AND SOUTH CENTRAL SOUTH DAKOTA

CITY           SKY/WX    TMP DP  RH WIND       PRES   REMARKS
RAPID CTY ARPT SUNNY     85  45  24 E6        30.11F
PIERRE         SUNNY     83  52  34 VRB6      30.04F
CUSTER         SUNNY     77  41  27 SE9G20    30.24S
ELLSWORTH AFB  SUNNY     85  45  24 SE8       30.10F
PHILIP         SUNNY     86  50  28 E6        30.06F
PINE RIDGE     SUNNY     87  53  31 E12       30.11F
SPEARFISH      FAIR      86  45  23 VRB5      30.12F
WINNER         FAIR      87  52  29 NE7G16    30.07F
$$

SDZ004>011-016>023-039-040-231900-
NORTHEAST SOUTH DAKOTA

CITY           SKY/WX    TMP DP  RH WIND       PRES   REMARKS
ABERDEEN       MOSUNNY   77  59  53 N12G20    30.04F
WATERTOWN      MOSUNNY   73  60  63 N15G22    30.03S
BROOKINGS      MOSUNNY   74  59  59 NW14      30.03S
SISSETON         N/A     71  60  68 N13       30.02F
$$

SDZ017-020-022-023-036>040-048>070-231900-
SOUTHEAST SOUTH DAKOTA

CITY           SKY/WX    TMP DP  RH WIND       PRES   REMARKS
SIOUX FALLS    MOSUNNY   79  61  53 NW12      30.01F
HURON          SUNNY     76  60  57 N10       30.03R
CHAMBERLAIN    SUNNY     85  53  32 NW10      30.05S
MITCHELL       SUNNY     79  59  50 NW14G20   30.04F
YANKTON        SUNNY     81  58  45 N17       30.02S
$$

ABBREVIATIONS USED IN REMARKS
   TC - TEMPERATURE IN CELSIUS
  WCI - WIND CHILL INDEX
   HX - HEAT INDEX
  VSB - VISIBILITY





USA.gov is the U.S. government's official web portal to all federal, state and local government web resources and services.